Location: *
(51.1248°S, 108.4023°W)
Time: 08:57:04
(UTC+00:00)

Envisat - Pass Details

Date: 26 September 2021
Orbit: 764 x 766 km, 98.2° (Epoch: 27 October)

Event Time Altitude Azimuth Distance (km) Brightness Sun altitude
Rises 12:06:53 0° 352° (N) 3,231 6.0 -7.9°
Reaches altitude 10° 12:09:20 10° 343° (NNW) 2,314 5.2 -7.5°
Maximum altitude 12:14:03 37° 276° (W) 1,200 3.5 -6.8°
Drops below altitude 10° 12:18:50 10° 208° (SSW) 2,342 5.3 -6.1°
Sets 12:21:20 0° 200° (SSW) 3,277 6.2 -5.7°
